H1 CPF 2 NER 2025 9 17 9 260 01 glonass129 H2 1106402 9129 37868 2025 9 17 0 0 0 2025 9 20 23 45 0 900 1 1 0 0 0 1 H9 10 0 60935 0.00000 0 10801528.912 5836189.982 -22333626.454 10 0 60935 900.00000 0 11135997.073 8516074.699 -21290133.225 10 0 60935 1800.00000 0 11641534.553 11011463.358 -19832350.877 10 0 60935 2700.00000 0 12282553.106 13264459.219 -17988890.159 10 0 60935 3600.00000 0 13014409.705 15226178.859 -15795827.564 10 0 60935 4500.00000 0 13785388.290 16858542.525 -13295985.005 10 0 60935 5400.00000 0 14538991.686 18135615.726 -10538081.700 10 0 60935 6300.00000 0 15216445.943 19044448.769 -7575775.804 10 0 60935 7200.00000 0 15759310.912 19585382.027 -4466615.217 10 0 60935 8100.00000 0 16112086.945 19771807.228 -1270918.444 10 0 60935 9000.00000 0 16224708.312 19629397.573 1949392.602 10 0 60935 9900.00000 0 16054819.105 19194841.395 5131985.359 10 0 60935 10800.00000 0 15569736.881 18514134.359 8215312.295 10 0 60935 11700.00000 0 14748022.620 17640503.051 11139787.257 10 0 60935 12600.00000 0 13580592.017 16632047.542 13848920.827 10 0 60935 13500.00000 0 12071322.197 15549201.590 16290394.168 10 0 60935 14400.00000 0 10237128.608 14452116.085 18417052.217 10 0 60935 15300.00000 0 8107508.492 13398074.125 20187798.668 10 0 60935 16200.00000 0 5723568.888 12439044.398 21568377.086 10 0 60935 17100.00000 0 3136577.946 11619473.680 22532024.486 10 0 60935 18000.00000 0 406097.533 10974409.458 23059985.782 10 0 60935 18900.00000 0 -2402227.981 10528030.192 23141879.804 10 0 60935 19800.00000 0 -5219137.905 10292644.300 22775909.857 10 0 60935 20700.00000 0 -7974376.905 10268199.994 21968914.181 10 0 60935 21600.00000 0 -10599366.037 10442327.362 20736254.210 10 0 60935 22500.00000 0 -13029814.433 10790912.417 19101541.145 10 0 60935 23400.00000 0 -15208164.567 11279180.922 17096204.067 10 0 60935 24300.00000 0 -17085770.147 11863248.505 14758905.745 10 0 60935 25200.00000 0 -18624715.857 12492073.847 12134815.150 10 0 60935 26100.00000 0 -19799202.265 13109734.288 9274748.806 10 0 60935 27000.00000 0 -20596436.745 13657928.860 6234195.969 10 0 60935 27900.00000 0 -21016991.553 14078603.302 3072245.504 10 0 60935 28800.00000 0 -21074612.485 14316585.438 -149565.044 10 0 60935 29700.00000 0 -20795484.797 14322117.987 -3368455.498 10 0 60935 30600.00000 0 -20216986.502 14053179.454 -6521639.793 10 0 60935 31500.00000 0 -19385981.324 13477492.156 -9547567.733 10 0 60935 32400.00000 0 -18356723.832 12574129.551 -12387145.706 10 0 60935 33300.00000 0 -17188466.280 11334652.001 -14984910.435 10 0 60935 34200.00000 0 -15942869.881 9763720.439 -17290130.770 10 0 60935 35100.00000 0 -14681331.768 7879159.968 -19257814.190 10 0 60935 36000.00000 0 -13462342.515 5711469.322 -20849596.864 10 0 60935 36900.00000 0 -12338987.573 3302796.057 -22034498.887 10 0 60935 37800.00000 0 -11356699.430 705420.433 -22789529.464 10 0 60935 38700.00000 0 -10551356.039 -2020188.063 -23100130.303 10 0 60935 39600.00000 0 -9947805.768 -4807659.412 -22960449.062 10 0 60935 40500.00000 0 -9558880.336 -7587260.435 -22373438.485 10 0 60935 41400.00000 0 -9384935.984 -10288574.125 -21350780.509 10 0 60935 42300.00000 0 -9413940.325 -12843208.601 -19912638.250 10 0 60935 43200.00000 0 -9622098.948 -15187422.713 -18087242.217 10 0 60935 44100.00000 0 -9974992.958 -17264559.331 -15910320.293 10 0 60935 45000.00000 0 -10429177.178 -19027185.981 -13424384.011 10 0 60935 45900.00000 0 -10934169.479 -20438855.219 -10677886.258 10 0 60935 46800.00000 0 -11434745.722 -21475413.521 -7724267.826 10 0 60935 47700.00000 0 -11873442.280 -22125806.570 -4620912.156 10 0 60935 48600.00000 0 -12193160.041 -22392350.029 -1428029.107 10 0 60935 49500.00000 0 -12339759.998 -22290457.238 1792510.427 10 0 60935 50400.00000 0 -12264541.468 -21847837.692 4978366.521 10 0 60935 51300.00000 0 -11926499.339 -21103201.956 8067926.266 10 0 60935 52200.00000 0 -11294266.331 -20104528.725 11001481.516 10 0 60935 53100.00000 0 -10347659.598 -18906967.405 13722366.684 10 0 60935 54000.00000 0 -9078767.534 -17570464.137 16178035.980 10 0 60935 54900.00000 0 -7492531.594 -16157210.021 18321060.917 10 0 60935 55800.00000 0 -5606798.643 -14729017.154 20110030.426 10 0 60935 56700.00000 0 -3451840.822 -13344730.633 21510337.846 10 0 60935 57600.00000 0 -1069361.457 -12057782.930 22494841.024 10 0 60935 58500.00000 0 1488973.667 -10913991.121 23044383.828 10 0 60935 59400.00000 0 4163421.232 -9949687.532 23148169.639 10 0 60935 60300.00000 0 6888386.135 -9190260.867 22803979.695 10 0 60935 61200.00000 0 9594898.646 -8649168.428 22018231.489 10 0 60935 62100.00000 0 12213242.984 -8327460.927 20805875.028 10 0 60935 63000.00000 0 14675630.629 -8213840.652 19190127.266 10 0 60935 63900.00000 0 16918809.061 -8285251.920 17202047.866 10 0 60935 64800.00000 0 18886498.484 -8507980.702 14879962.244 10 0 60935 65700.00000 0 20531555.261 -8839218.975 12268740.800 10 0 60935 66600.00000 0 21817771.250 -9229029.495 9418946.308 10 0 60935 67500.00000 0 22721232.638 -9622629.286 6385864.330 10 0 60935 68400.00000 0 23231179.754 -9962895.922 3228434.406 10 0 60935 69300.00000 0 23350329.988 -10192990.306 8102.376 10 0 60935 70200.00000 0 23094648.540 -10258983.915 -3212383.534 10 0 60935 71100.00000 0 22492575.313 -10112377.355 -6370208.539 10 0 60935 72000.00000 0 21583739.707 -9712401.142 -9403733.416 10 0 60935 72900.00000 0 20417217.402 -9027998.448 -12253716.837 10 0 60935 73800.00000 0 19049403.208 -8039402.954 -14864492.009 10 0 60935 74700.00000 0 17541590.934 -6739242.335 -17185072.555 10 0 60935 75600.00000 0 15957363.999 -5133118.361 -19170164.196 10 0 60935 76500.00000 0 14359908.644 -3239637.347 -20781060.971 10 0 60935 77400.00000 0 12809364.854 -1089888.486 -21986407.458 10 0 60935 78300.00000 0 11360328.034 1273608.474 -22762811.596 10 0 60935 79200.00000 0 10059607.645 3798441.986 -23095296.185 10 0 60935 80100.00000 0 8944337.391 6424268.830 -22977580.763 10 0 60935 81000.00000 0 8040516.019 9085112.789 -22412189.269 10 0 60935 81900.00000 0 7362038.864 11711904.940 -21410382.620 10 0 60935 82800.00000 0 6910259.029 14235158.719 -19991918.947 10 0 60935 83700.00000 0 6674094.252 16587667.735 -18184647.643 10 0 60935 84600.00000 0 6630672.295 18707113.846 -16023946.654 10 0 60935 85500.00000 0 6746484.934 20538477.251 -13552015.375 10 0 60936 0.00000 0 6978999.286 22036149.109 -10817038.448 10 0 60936 900.00000 0 7278656.424 23165660.940 -7872236.247 10 0 60936 1800.00000 0 7591170.929 23904958.749 -4774825.100 10 0 60936 2700.00000 0 7860033.575 24245173.738 -1584903.055 10 0 60936 3600.00000 0 8029110.769 24190857.805 1635713.344 10 0 60936 4500.00000 0 8045231.211 23759677.245 4824680.236 10 0 60936 5400.00000 0 7860651.223 22981579.419 7920322.726 10 0 60936 6300.00000 0 7435295.740 21897468.882 10862813.960 10 0 60936 7200.00000 0 6738681.606 20557449.349 13595315.268 10 0 60936 8100.00000 0 5751443.241 19018705.341 16065056.752 10 0 60936 9000.00000 0 4466397.251 17343111.677 18224339.061 10 0 60936 9900.00000 0 2889101.503 15594669.692 20031438.613 10 0 60936 10800.00000 0 1037884.823 13836875.693 21451400.438 10 0 60936 11700.00000 0 -1056655.099 12130129.672 22456704.781 10 0 60936 12600.00000 0 -3352666.466 10529290.419 23027795.641 10 0 60936 13500.00000 0 -5798530.952 9081477.229 23153461.716 10 0 60936 14400.00000 0 -8334765.071 7824208.384 22831062.480 10 0 60936 15300.00000 0 -10896259.335 6783953.127 22066594.516 10 0 60936 16200.00000 0 -13414765.161 5975157.237 20874595.717 10 0 60936 17100.00000 0 -15821528.858 5399783.161 19277887.611 10 0 60936 18000.00000 0 -18049965.311 5047384.805 17307158.770 10 0 60936 18900.00000 0 -20038261.481 4895715.113 15000395.150 10 0 60936 19800.00000 0 -21731801.818 4911842.386 12402166.109 10 0 60936 20700.00000 0 -23085314.061 5053729.884 9562777.926 10 0 60936 21600.00000 0 -24064644.691 5272213.300 6537309.547 10 0 60936 22500.00000 0 -24648088.077 5513293.366 3384548.163 10 0 60936 23400.00000 0 -24827211.561 5720646.676 165844.880 10 0 60936 24300.00000 0 -24607139.822 5838247.738 -3056087.036 10 0 60936 25200.00000 0 -24006284.708 5812989.697 -6218407.041 10 0 60936 26100.00000 0 -23055530.585 5597190.512 -9259389.756 10 0 60936 27000.00000 0 -21796908.774 5150875.804 -12119648.908 10 0 60936 27900.00000 0 -20281816.954 4443738.775 -14743316.807 10 0 60936 28800.00000 0 -18568859.245 3456691.411 -17079154.246 10 0 60936 29700.00000 0 -16721399.240 2182938.842 -19081567.290 10 0 60936 30600.00000 0 -14804930.644 628529.336 -20711509.588 10 0 60936 31500.00000 0 -12884377.918 -1187644.717 -21937251.497 10 0 60936 32400.00000 0 -11021442.054 -3234395.728 -22735000.516 10 0 60936 33300.00000 0 -9272104.160 -5469316.892 -23089360.890 10 0 60936 34200.00000 0 -7684392.345 -7840339.739 -22993623.912 10 0 60936 35100.00000 0 -6296505.456 -10287707.277 -22449884.150 10 0 60936 36000.00000 0 -5135371.489 -12746279.278 -21468980.552 10 0 60936 36900.00000 0 -4215699.496 -15148072.391 -20070264.951 10 0 60936 37800.00000 0 -3539562.461 -17424928.239 -18281204.043 10 0 60936 38700.00000 0 -3096525.892 -19511197.767 -16136824.022 10 0 60936 39600.00000 0 -2864313.727 -21346329.800 -13679010.171 10 0 60936 40500.00000 0 -2809980.510 -22877256.377 -10955676.307 10 0 60936 41400.00000 0 -2891537.736 -24060476.427 -8019821.270 10 0 60936 42300.00000 0 -3059963.493 -24863752.305 -4928491.701 10 0 60936 43200.00000 0 -3261508.895 -25267350.305 -1741671.758 10 0 60936 44100.00000 0 -3440202.945 -25264775.471 1478878.427 10 0 60936 45000.00000 0 -3540449.677 -24862972.162 4670813.093 10 0 60936 45900.00000 0 -3509608.221 -24081984.023 7772397.408 10 0 60936 46800.00000 0 -3300447.633 -22954089.209 10723687.865 10 0 60936 47700.00000 0 -2873374.001 -21522448.152 13467674.776 10 0 60936 48600.00000 0 -2198337.114 -19839320.867 15951366.183 10 0 60936 49500.00000 0 -1256337.406 -17963928.019 18126793.851 10 0 60936 50400.00000 0 -40470.436 -15960044.186 19951923.552 10 0 60936 51300.00000 0 1443534.926 -13893422.242 21391453.714 10 0 60936 52200.00000 0 3177307.822 -11829154.322 22417488.467 10 0 60936 53100.00000 0 5130358.038 -9829077.283 23010073.188 10 0 60936 54000.00000 0 7261110.191 -7949328.572 23157582.878 10 0 60936 54900.00000 0 9518409.054 -6238152.457 22856955.980 10 0 60936 55800.00000 0 11843436.269 -4734046.550 22113768.627 10 0 60936 56700.00000 0 14171961.745 -3464325.006 20942146.828 10 0 60936 57600.00000 0 16436838.948 -2444158.041 19364516.657 10 0 60936 58500.00000 0 18570642.595 -1676128.276 17411195.321 10 0 60936 59400.00000 0 20508340.646 -1150323.302 15119828.760 10 0 60936 60300.00000 0 22189890.077 -844961.758 12534684.425 10 0 60936 61200.00000 0 23562648.072 -727527.973 9705810.882 10 0 60936 62100.00000 0 24583496.965 -756368.553 6688078.866 10 0 60936 63000.00000 0 25220592.423 -882684.466 3540121.226 10 0 60936 63900.00000 0 25454659.450 -1052834.703 323191.955 10 0 60936 64800.00000 0 25279779.551 -1210853.695 -2900033.349 10 0 60936 65700.00000 0 24703633.711 -1301074.724 -6066691.339 10 0 60936 66600.00000 0 23747189.091 -1270746.358 -9114973.591 10 0 60936 67500.00000 0 22443841.332 -1072528.642 -11985352.031 10 0 60936 68400.00000 0 20838047.910 -666760.577 -14621761.168 10 0 60936 69300.00000 0 18983510.229 -23400.037 -16972711.938 10 0 60936 70200.00000 0 16940981.717 876448.603 -18992313.553 10 0 60936 71100.00000 0 14775795.360 2039486.000 -20641181.865 10 0 60936 72000.00000 0 12555216.212 3459694.504 -21887215.387 10 0 60936 72900.00000 0 10345731.588 5118363.140 -22706223.284 10 0 60936 73800.00000 0 8210393.971 6984660.311 -23082393.045 10 0 60936 74700.00000 0 6206328.937 9016730.002 -23008589.162 10 0 60936 75600.00000 0 4382512.662 11163264.901 -22486477.868 10 0 60936 76500.00000 0 2777911.557 13365489.580 -21526476.711 10 0 60936 77400.00000 0 1420060.582 15559469.665 -20147531.328 10 0 60936 78300.00000 0 324137.713 17678649.386 -18376725.297 10 0 60936 79200.00000 0 -507429.337 19656510.742 -16248732.142 10 0 60936 80100.00000 0 -1084810.707 21429242.682 -13805121.632 10 0 60936 81000.00000 0 -1430085.926 22938308.900 -11093535.134 10 0 60936 81900.00000 0 -1576051.481 24132807.531 -8166747.159 10 0 60936 82800.00000 0 -1564577.415 24971525.182 -5081632.211 10 0 60936 83700.00000 0 -1444584.487 25424600.938 -1898057.565 10 0 60936 84600.00000 0 -1269728.828 25474732.569 1322276.277 10 0 60936 85500.00000 0 -1095892.685 25117876.401 4517025.030 10 0 60937 0.00000 0 -978587.358 24363413.520 7624397.072 10 0 60937 900.00000 0 -970377.465 23233776.496 10584336.190 10 0 60937 1800.00000 0 -1118434.441 21763554.476 13339664.671 10 0 60937 2700.00000 0 -1462321.049 19998113.262 15837171.597 10 0 60937 3600.00000 0 -2032099.232 17991788.840 18028622.731 10 0 60937 4500.00000 0 -2846839.883 15805728.602 19871675.819 10 0 60937 5400.00000 0 -3913596.676 13505468.932 21330685.005 10 0 60937 6300.00000 0 -5226887.143 11158348.136 22377380.291 10 0 60937 7200.00000 0 -6768703.616 8830860.225 22991410.038 10 0 60937 8100.00000 0 -8509055.147 6586057.297 23160736.725 10 0 60937 9000.00000 0 -10407020.086 4481106.404 22881878.467 10 0 60937 9900.00000 0 -12412268.064 2565100.674 22159991.133 10 0 60937 10800.00000 0 -14466990.966 877214.440 21008788.469 10 0 60937 11700.00000 0 -16508165.308 -554721.522 19450300.162 10 0 60937 12600.00000 0 -18470054.354 -1715165.330 17514470.554 10 0 60937 13500.00000 0 -20286847.647 -2601289.966 15238603.561 10 0 60937 14400.00000 0 -21895329.075 -3222871.136 12666662.258 10 0 60937 15300.00000 0 -23237462.317 -3601640.582 9848434.669 10 0 60937 16200.00000 0 -24262784.981 -3770130.879 6838580.211 10 0 60937 17100.00000 0 -24930509.730 -3770059.382 3695574.126 10 0 60937 18000.00000 0 -25211242.253 -3650319.042 480569.932 10 0 60937 18900.00000 0 -25088241.469 -3464661.099 -2743797.803 10 0 60937 19800.00000 0 -24558166.470 -3269168.473 -5914646.253 10 0 60937 20700.00000 0 -23631276.417 -3119628.362 -8970087.184 10 0 60937 21600.00000 0 -22331073.097 -3068917.424 -11850453.836 10 0 60937 22500.00000 0 -20693399.892 -3164512.860 -14499485.845 10 0 60937 23400.00000 0 -18765034.577 -3446237.491 -16865446.972 10 0 60937 24300.00000 0 -16601835.331 -3944336.959 -18902151.918 10 0 60937 25200.00000 0 -14266518.676 -4677972.726 -20569880.654 10 0 60937 26100.00000 0 -11826163.938 -5654196.414 -21836161.243 10 0 60937 27000.00000 0 -9349550.341 -6867450.084 -22676405.349 10 0 60937 27900.00000 0 -6904439.698 -8299614.117 -23074383.947 10 0 60937 28800.00000 0 -4554919.531 -9920600.728 -23022534.395 10 0 60937 29700.00000 0 -2358918.303 -11689467.602 -22522093.744 10 0 60937 30600.00000 0 -365996.436 -13556004.031 -21583056.842 10 0 60937 31500.00000 0 1384495.406 -15462721.829 -20223961.456 10 0 60937 32400.00000 0 2864815.529 -17347166.435 -18471506.082 10 0 60937 33300.00000 0 4059731.777 -19144450.353 -16360009.393 10 0 60937 34200.00000 0 4966888.656 -20789902.094 -13930723.306 10 0 60937 35100.00000 0 5596628.919 -22221719.383 -11231014.317 10 0 60937 36000.00000 0 5971280.412 -23383515.724 -8313430.150 10 0 60937 36900.00000 0 6123941.301 -24226654.322 -5234670.718 10 0 60937 37800.00000 0 6096817.554 -24712272.738 -2054484.012 10 0 60937 38700.00000 0 5939184.841 -24812914.938 1165491.438 10 0 60937 39600.00000 0 5705062.215 -24513704.028 4362915.069 10 0 60937 40500.00000 0 5450696.378 -23813008.268 7475941.164 10 0 60937 41400.00000 0 5231962.608 -22722573.970 10444401.731 10 0 60937 42300.00000 0 5101791.348 -21267120.876 13210953.519 10 0 60937 43200.00000 0 5107727.873 -19483417.579 15722168.441 10 0 60937 44100.00000 0 5289726.554 -17418875.576 17929547.885 10 0 60937 45000.00000 0 5678271.353 -15129719.954 19790443.001 10 0 60937 45900.00000 0 6292900.598 -12678811.654 21268864.855 10 0 60937 46800.00000 0 7141197.596 -10133210.031 22336170.282 10 0 60937 47700.00000 0 8218289.622 -7561574.910 22971611.330 10 0 60937 48600.00000 0 9506877.282 -5031513.593 23162738.402 10 0 60937 49500.00000 0 10977794.713 -2606980.621 22905649.475 10 0 60937 50400.00000 0 12591079.534 -345836.177 22205080.124 10 0 60937 51300.00000 0 14297510.561 1702337.179 21074331.602 10 0 60937 52200.00000 0 16040551.969 3498069.765 19535036.785 10 0 60937 53100.00000 0 17758625.399 5013416.113 17616766.557 10 0 60937 54000.00000 0 19387617.414 6232883.410 15356482.022 10 0 60937 54900.00000 0 20863519.091 7153837.631 12797840.902 10 0 60937 55800.00000 0 22125088.059 7786369.323 9990369.462 10 0 60937 56700.00000 0 23116421.301 8152623.554 6988514.339 10 0 60937 57600.00000 0 23789329.771 8285621.153 3850591.421 10 0 60937 58500.00000 0 24105413.256 8227620.162 637651.749 10 0 60937 59400.00000 0 24037745.865 8028086.482 -2587713.397 10 0 60937 60300.00000 0 23572098.563 7741359.910 -5762604.151 10 0 60937 61200.00000 0 22707644.589 7424115.438 -8825055.030 10 0 60937 62100.00000 0 21457115.681 7132729.061 -11715263.185 10 0 60937 63000.00000 0 19846400.660 6920661.875 -14376775.948 10 0 60937 63900.00000 0 17913602.092 6835975.796 -16757612.390 10 0 60937 64800.00000 0 15707590.271 6919088.609 -18811295.080 10 0 60937 65700.00000 0 13286115.507 7200865.715 -20497770.353 10 0 60937 66600.00000 0 10713558.828 7701131.195 -21784197.946 10 0 60937 67500.00000 0 8058416.542 8427662.479 -22645593.983 10 0 60937 68400.00000 0 5390625.300 9375711.785 -23065314.708 10 0 60937 69300.00000 0 2778840.735 10528074.597 -23035371.877 10 0 60937 70200.00000 0 287784.172 11855701.820 -22556574.570 10 0 60937 71100.00000 0 -2024231.595 13318828.914 -21638495.760 10 0 60937 72000.00000 0 -4107494.609 14868573.306 -20299265.714 10 0 60937 72900.00000 0 -5922713.922 16448931.620 -18565197.732 10 0 60937 73800.00000 0 -7442393.594 17999091.581 -16470255.026 10 0 60937 74700.00000 0 -8651705.703 19455960.521 -14055370.569 10 0 60937 75600.00000 0 -9548828.934 20756803.631 -11367634.454 10 0 60937 76500.00000 0 -10144741.905 21841881.094 -8459365.676 10 0 60937 77400.00000 0 -10462483.182 22656973.618 -5387087.284 10 0 60937 78300.00000 0 -10535912.142 23155691.169 -2210425.409 10 0 60937 79200.00000 0 -10408025.379 23301469.132 1009046.190 10 0 60937 80100.00000 0 -10128901.438 23069169.542 4208993.650 10 0 60937 81000.00000 0 -9753361.674 22446221.747 7327519.991 10 0 60937 81900.00000 0 -9338446.208 21433256.085 10304349.159 10 0 60937 82800.00000 0 -8940811.072 20044205.172 13081975.264 10 0 60937 83700.00000 0 -8614155.336 18305869.260 15606756.165 10 0 60937 84600.00000 0 -8406785.316 16256963.888 17829931.892 10 0 60937 85500.00000 0 -8359416.936 13946689.055 19708549.859 10 0 60938 0.00000 0 -8503307.356 11432878.530 21206280.578 10 0 60938 900.00000 0 -8858793.464 8779803.145 22294110.348 10 0 60938 1800.00000 0 -9434297.971 6055720.506 22950896.771 10 0 60938 2700.00000 0 -10225845.289 3330265.896 23163779.787 10 0 60938 3600.00000 0 -11217108.382 671793.339 22928438.385 10 0 60938 4500.00000 0 -12379986.397 -1855226.527 22249188.469 10 0 60938 5400.00000 0 -13675691.176 -4192645.627 21138918.854 10 0 60938 6300.00000 0 -15056299.835 -6290814.875 19618865.076 10 0 60938 7200.00000 0 -16466711.103 -8110408.185 17718223.438 10 0 60938 8100.00000 0 -17846925.979 -9623818.344 15473610.558 10 0 60938 9000.00000 0 -19134559.121 -10816066.098 12928376.618 10 0 60938 9900.00000 0 -20267476.834 -11685183.581 10131783.514 10 0 60938 10800.00000 0 -21186451.275 -12242054.885 7138062.138 10 0 60938 11700.00000 0 -21837718.730 -12509719.303 4005365.813 10 0 60938 12600.00000 0 -22175332.862 -12522165.588 794639.723 10 0 60938 13500.00000 0 -22163211.680 -12322667.536 -2431571.612 10 0 60938 14400.00000 0 -21776789.324 -11961731.173 -5610354.794 10 0 60938 15300.00000 0 -21004200.200 -11494741.057 -8679670.572 10 0 60938 16200.00000 0 -19846942.814 -10979406.618 -11579583.413 10 0 60938 17100.00000 0 -18319992.983 -10473118.519 -14253451.614 10 0 60938 18000.00000 0 -16451359.864 -10030329.241 -16649052.589 10 0 60938 18900.00000 0 -14281102.427 -9700071.185 -18719619.492 10 0 60938 19800.00000 0 -11859847.368 -9523719.581 -20424767.309 10 0 60938 20700.00000 0 -9246870.985 -9533096.796 -21731289.205 10 0 60938 21600.00000 0 -6507826.269 -9748999.584 -22613806.931 10 0 60938 22500.00000 0 -3712211.417 -10180212.284 -23055262.514 10 0 60938 23400.00000 0 -930686.804 -10823047.741 -23047242.012 10 0 60938 24300.00000 0 1767646.614 -11661434.835 -22590125.856 10 0 60938 25200.00000 0 4317893.367 -12667547.908 -21693063.958 10 0 60938 26100.00000 0 6661823.694 -13802950.224 -20373777.479 10 0 60938 27000.00000 0 8750046.103 -15020201.762 -18658192.575 10 0 60938 27900.00000 0 10543803.119 -16264862.116 -16579914.761 10 0 60938 28800.00000 0 12016317.465 -17477802.889 -14179555.603 10 0 60938 29700.00000 0 13153635.142 -18597731.196 -11503926.137 10 0 60938 30600.00000 0 13954933.314 -19563817.581 -8605113.839 10 0 60938 31500.00000 0 14432283.347 -20318317.630 -5539461.996 10 0 60938 32400.00000 0 14609882.141 -20809077.421 -2366471.944 10 0 60938 33300.00000 0 14522786.901 -20991818.288 852350.249 10 0 60938 34200.00000 0 14215208.823 -20832105.953 4054680.253 10 0 60938 35100.00000 0 13738439.142 -20306922.684 7178572.502 10 0 60938 36000.00000 0 13148495.668 -19405777.739 10163645.354 10 0 60938 36900.00000 0 12503589.000 -18131310.693 12952232.484 10 0 60938 37800.00000 0 11861514.481 -16499363.086 15490479.618 10 0 60938 38700.00000 0 11277078.472 -14538515.602 17729367.029 10 0 60938 39600.00000 0 10799665.758 -12289109.686 19625639.664 10 0 60938 40500.00000 0 10471048.729 -9801793.306 21142628.650 10 0 60938 41400.00000 0 10323528.964 -7135649.642 22250949.811 10 0 60938 42300.00000 0 10378488.213 -4355984.292 22929066.880 10 0 60938 43200.00000 0 10645409.148 -1531860.263 23163709.303 10 0 60938 44100.00000 0 11121407.201 1266519.729 22950136.756 10 0 60938 45000.00000 0 11791294.184 3970477.710 22292244.896 10 0 60938 45900.00000 0 12628172.668 6515463.484 21202509.301 10 0 60938 46800.00000 0 13594538.430 8843490.091 19701767.174 10 0 60938 47700.00000 0 14643847.208 10905301.701 17818839.083 10 0 60938 48600.00000 0 15722482.455 12662184.257 15589995.856 10 0 60938 49500.00000 0 16772043.671 14087343.304 13058278.684 10 0 60938 50400.00000 0 17731860.662 15166790.678 10272683.498 10 0 60938 51300.00000 0 18541628.778 15899701.864 7287223.700 10 0 60938 52200.00000 0 19144054.075 16298227.730 4159888.150 10 0 60938 53100.00000 0 19487395.860 16386767.360 951514.133 10 0 60938 54000.00000 0 19527797.582 16200731.685 -2275402.739 10 0 60938 54900.00000 0 19231305.246 15784849.690 -5457937.742 10 0 60938 55800.00000 0 18575485.296 15191088.974 -8533980.078 10 0 60938 56700.00000 0 17550570.791 14476279.458 -11443463.700 10 0 60938 57600.00000 0 16160084.770 13699542.270 -14129559.943 10 0 60938 58500.00000 0 14420912.290 12919634.536 -16539806.534 10 0 60938 59400.00000 0 12362816.423 12192324.621 -18627149.040 10 0 60938 60300.00000 0 10027417.650 11567911.026 -20350872.826 10 0 60938 61200.00000 0 7466679.275 11088991.800 -21677406.105 10 0 60938 62100.00000 0 4740962.767 10788580.194 -22580977.761 10 0 60938 63000.00000 0 1916735.235 10688647.025 -23044116.990 10 0 60938 63900.00000 0 -935974.040 10799151.456 -23057985.347 10 0 60938 64800.00000 0 -3746260.803 11117600.587 -22622535.547 10 0 60938 65700.00000 0 -6445063.904 11629155.365 -21746495.057 10 0 60938 66600.00000 0 -8967800.582 12307276.786 -20447176.137 10 0 60938 67500.00000 0 -11256809.439 13114883.356 -18750117.574 10 0 60938 68400.00000 0 -13263500.253 14005969.170 -16688566.528 10 0 60938 69300.00000 0 -14950122.604 14927612.623 -14302812.090 10 0 60938 70200.00000 0 -16291081.808 15822289.666 -11639384.815 10 0 60938 71100.00000 0 -17273749.947 16630393.033 -8750138.935 10 0 60938 72000.00000 0 -17898741.128 17292850.746 -5691236.010 10 0 60938 72900.00000 0 -18179642.561 17753733.500 -2522050.416 10 0 60938 73800.00000 0 -18142215.724 17962741.571 695981.806 10 0 60938 74700.00000 0 -17823103.672 17877467.366 3900548.344 10 0 60938 75600.00000 0 -17268100.778 17465339.531 7029657.668 10 0 60938 76500.00000 0 -16530058.919 16705168.106 10022825.292 10 0 60938 77400.00000 0 -15666518.590 15588226.931 12822227.286 10 0 60938 78300.00000 0 -14737164.306 14118828.731 15373800.126 10 0 60938 79200.00000 0 -13801210.285 12314369.141 17628267.193 10 0 60938 80100.00000 0 -12914824.874 10204837.565 19542073.752 10 0 60938 81000.00000 0 -12128700.143 7831814.388 21078214.054 10 0 60938 81900.00000 0 -11485866.939 5246994.691 22206936.112 10 0 60938 82800.00000 0 -11019845.554 2510297.746 22906311.726 10 0 60938 83700.00000 0 -10753208.492 -312361.788 23162661.551 10 0 60938 84600.00000 0 -10696615.133 -3151551.350 22970827.231 10 0 60938 85500.00000 0 -10848359.046 -5936946.675 22334284.960 99